| time (UTC) | temp C | wind direction | speed KPH | gust KPH | rain 1hr cm | rain 24hr cm | rain mn cm | humidity % | barometer mb |
| 20260505200029 | 27 | 223 | 6.4 | 22.5 | 0.00 | 0.00 | 0.00 | 38 | 1013.6 |
| 20260505194512 | 27 | 161 | 12.9 | 22.5 | 0.00 | 0.00 | 0.00 | 40 | 1014.0 |
| 20260505193027 | 26 | 150 | 9.7 | 16.1 | 0.00 | 0.00 | 0.00 | 41 | 1014.1 |
| 20260505191503 | 27 | 146 | 11.3 | 19.3 | 0.00 | 0.00 | 0.00 | 41 | 1014.3 |
| 20260505190116 | 27 | 190 | 9.7 | 17.7 | 0.00 | 0.00 | 0.00 | 41 | 1014.5 |
| 20260505184605 | 26 | 167 | 6.4 | 16.1 | 0.00 | 0.00 | 0.00 | 43 | 1014.6 |
| 20260505183053 | 27 | 193 | 9.7 | 14.5 | 0.00 | 0.00 | 0.00 | 42 | 1014.8 |
| 20260505181546 | 26 | 202 | 6.4 | 16.1 | 0.00 | 0.00 | 0.00 | 47 | 1015.3 |
| 20260505180042 | 26 | 252 | 9.7 | 20.9 | 0.00 | 0.00 | 0.00 | 42 | 1015.6 |
| 20260505174539 | 25 | 191 | 14.5 | 32.2 | 0.00 | 0.00 | 0.00 | 44 | 1015.6 |
| 20260505173037 | 26 | 146 | 14.5 | 19.3 | 0.00 | 0.00 | 0.00 | 44 | 1015.6 |
| 20260505171530 | 26 | 188 | 11.3 | 22.5 | 0.00 | 0.00 | 0.00 | 48 | 1015.7 |
| 20260505170023 | 25 | 184 | 6.4 | 16.1 | 0.00 | 0.00 | 0.00 | 44 | 1015.7 |
| 20260505164530 | 25 | 157 | 8.0 | 17.7 | 0.00 | 0.00 | 0.00 | 47 | 1015.8 |
| 20260505163013 | 25 | 175 | 11.3 | 19.3 | 0.00 | 0.00 | 0.00 | 54 | 1016.0 |
| 20260505161507 | 24 | 198 | 6.4 | 16.1 | 0.00 | 0.00 | 0.00 | 53 | 1016.2 |
| 20260505153106 | 23 | 274 | 4.8 | 12.9 | 0.00 | 0.00 | 0.00 | 55 | 1016.6 |
| 20260505151549 | 23 | 241 | 8.0 | 17.7 | 0.00 | 0.00 | 0.00 | 56 | 1016.7 |
| 20260505124503 | 13 | 186 | 4.8 | 9.7 | 0.00 | 0.00 | 0.00 | 1 | 1016.5 |
| 20260505123113 | 12 | 186 | 3.2 | 6.4 | 0.00 | 0.00 | 0.00 | 1 | 1016.5 |
| 20260505121554 | 11 | 186 | 0.0 | 0.0 | 0.00 | 0.00 | 0.00 | 1 | 1016.5 |
| 20260505120053 | 10 | 186 | 0.0 | 0.0 | 0.00 | 0.00 | 0.00 | 1 | 1016.1 |
| 20260505114553 | 9 | 186 | 0.0 | 0.0 | 0.00 | 0.00 | 0.00 | 1 | 1016.0 |
| 20260505113042 | 8 | 184 | 0.0 | 0.0 | 0.00 | 0.00 | 0.00 | 1 | 1016.0 |
| 20260505111536 | -17 | 184 | 0.0 | 0.0 | 0.00 | 0.00 | 0.00 | 1015.8 | |
| 20260505101520 | -17 | 184 | 0.0 | 0.0 | 0.00 | 0.00 | 0.00 | 1015.3 | |
| 20260505100015 | -17 | 184 | 0.0 | 0.0 | 0.00 | 0.00 | 0.00 | 1015.3 | |
| 20260505094509 | -17 | 184 | 0.0 | 0.0 | 0.00 | 0.00 | 0.00 | 1015.3 | |
| 20260505093006 | -17 | 184 | 0.0 | 0.0 | 0.00 | 0.00 | 0.00 | 1015.2 | |
| 20260505091502 | -17 | 184 | 0.0 | 0.0 | 0.00 | 0.00 | 0.00 | 1015.1 | |
| 20260505090109 | -17 | 184 | 0.0 | 0.0 | 0.00 | 0.00 | 0.00 | 1015.1 | |
| 20260505084553 | -17 | 184 | 0.0 | 0.0 | 0.00 | 0.00 | 0.00 | 1015.2 | |
| 20260505083052 | -17 | 184 | 0.0 | 0.0 | 0.00 | 0.00 | 0.00 | 1015.0 | |
| 20260505081548 | -17 | 184 | 0.0 | 0.0 | 0.00 | 0.00 | 0.00 | 1015.1 | |
| 20260505080050 | -17 | 184 | 0.0 | 0.0 | 0.00 | 0.00 | 0.00 | 1015.0 | |
| 20260505074535 | -17 | 184 | 0.0 | 3.2 | 0.00 | 0.00 | 0.00 | 1014.9 | |
| 20260505073044 | -17 | 184 | 1.6 | 4.8 | 0.00 | 0.00 | 0.00 | 1014.9 | |
| 20260505071526 | -17 | 184 | 3.2 | 6.4 | 0.00 | 0.00 | 0.00 | 1014.9 | |
| 20260505070023 | -17 | 184 | 4.8 | 9.7 | 0.00 | 0.00 | 0.00 | 1014.8 | |
| 20260505064517 | -17 | 184 | 3.2 | 8.0 | 0.00 | 0.00 | 0.00 | 1014.8 | |
| 20260505063101 | -17 | 184 | 4.8 | 9.7 | 0.00 | 0.00 | 0.00 | 1014.8 | |
| 20260505061600 | -17 | 184 | 4.8 | 9.7 | 0.00 | 0.00 | 0.00 | 1014.8 | |
| 20260505060049 | -17 | 184 | 3.2 | 9.7 | 0.00 | 0.00 | 0.00 | 1014.9 | |
| 20260505054545 | -17 | 184 | 1.6 | 8.0 | 0.00 | 0.00 | 0.00 | 1015.0 | |
| 20260505053040 | -17 | 184 | 3.2 | 9.7 | 0.00 | 0.00 | 0.00 | 1015.1 | |
| 20260505051537 | -17 | 184 | 3.2 | 9.7 | 0.00 | 0.00 | 0.00 | 1015.2 | |
| 20260505041536 | -17 | 188 | 4.8 | 11.3 | 0.00 | 0.00 | 0.00 | 1015.3 | |
| 20260505040014 | -17 | 192 | 4.8 | 12.9 | 0.00 | 0.00 | 0.00 | 1015.3 | |
| 20260505034513 | -17 | 201 | 0.0 | 0.0 | 0.00 | 0.00 | 0.00 | 1015.3 | |
| 20260505033013 | -17 | 202 | 0.0 | 0.0 | 0.00 | 0.00 | 0.00 | 1015.3 | |
| 20260505031513 | -17 | 202 | 0.0 | 0.0 | 0.00 | 0.00 | 0.00 | 1015.3 | |
| 20260505030012 | -17 | 202 | 0.0 | 0.0 | 0.00 | 0.00 | 0.00 | 1015.4 | |
| 20260505024510 | -17 | 202 | 0.0 | 0.0 | 0.00 | 0.00 | 0.00 | 1015.2 | |
| 20260505023010 | -17 | 202 | 0.0 | 0.0 | 0.00 | 0.00 | 0.00 | 1015.2 | |
| 20260505021510 | -17 | 203 | 0.0 | 0.0 | 0.00 | 0.00 | 0.00 | 1015.2 | |
| 20260505020014 | -17 | 202 | 0.0 | 0.0 | 0.00 | 0.00 | 0.00 | 1015.1 | |
| 20260505014508 | -17 | 203 | 0.0 | 0.0 | 0.00 | 0.00 | 0.00 | 1014.8 | |
| 20260505013008 | -17 | 203 | 0.0 | 0.0 | 0.00 | 0.00 | 0.00 | 1014.8 | |
| 20260505011510 | -17 | 203 | 0.0 | 0.0 | 0.00 | 0.00 | 0.00 | 1014.6 | |
| 20260505010007 | -17 | 203 | 0.0 | 0.0 | 0.00 | 0.00 | 0.00 | 1014.5 | |
| 20260505004506 | -17 | 203 | 0.0 | 1.6 | 0.00 | 0.00 | 0.00 | 1014.4 | |
| 20260505003005 | -17 | 202 | 1.6 | 6.4 | 0.00 | 0.00 | 0.00 | 1014.2 | |
| 20260505001506 | -17 | 202 | 1.6 | 8.0 | 0.00 | 0.00 | 0.00 | 1014.2 | |
| 20260505000004 | -17 | 204 | 0.0 | 0.0 | 0.00 | 0.00 | 0.00 | 1014.1 | |
| 20260504234504 | -17 | 204 | 0.0 | 0.0 | 0.00 | 0.00 | 0.00 | 1013.7 | |
| 20260504233004 | -17 | 204 | 0.0 | 3.2 | 0.00 | 0.00 | 0.00 | 1013.6 | |
| 20260504231502 | -17 | 198 | 1.6 | 4.8 | 0.00 | 0.00 | 0.00 | 1013.5 | |
| 20260504230006 | -17 | 198 | 1.6 | 6.4 | 0.00 | 0.00 | 0.00 | 1013.6 | |
| 20260504224502 | -17 | 198 | 6.4 | 12.9 | 0.00 | 0.00 | 0.00 | 1013.6 | |
| 20260504223001 | -17 | 207 | 3.2 | 14.5 | 0.00 | 0.00 | 0.00 | 1013.8 | |
| 20260504221501 | -17 | 180 | 4.8 | 11.3 | 0.00 | 0.00 | 0.00 | 1014.0 | |
| 20260504220001 | -17 | 175 | 9.7 | 16.1 | 0.00 | 0.00 | 0.00 | 1013.9 | |
| 20260504214602 | -17 | 208 | 4.8 | 16.1 | 0.00 | 0.00 | 0.00 | 1013.8 | |
| 20260504213130 | -17 | 194 | 4.8 | 14.5 | 0.00 | 0.00 | 0.00 | 1013.7 | |
| 20260504211556 | -17 | 170 | 6.4 | 14.5 | 0.00 | 0.00 | 0.00 | 1013.7 | |
| 20260504210050 | -17 | 167 | 8.0 | 14.5 | 0.00 | 0.00 | 0.00 | 1013.6 | |
| 20260504204547 | 27 | 175 | 8.0 | 12.9 | 0.00 | 0.00 | 0.00 | 29 | 1013.7 |
| 20260504203042 | 27 | 192 | 0.0 | 8.0 | 0.00 | 0.00 | 0.00 | 31 | 1013.9 |
| 20260504201536 | 26 | 188 | 0.0 | 12.9 | 0.00 | 0.00 | 0.00 | 31 | 1014.0 |